Tracking 30995 objects as of 5-Jul-2025
HD Live streaming from Space Station
objects crossing your sky now

STARLINK-4699

Track STARLINK-4699 now!
10-day predictions
STARLINK-4699 is classified as:


NORAD ID: 53716
Int'l Code: 2022-107S
Perigee: 546.1 km
Apogee: 547.7 km
Inclination: 53.2 °
Period: 95.4 minutes
Semi major axis: 6917 km
RCS: Unknown
Launch date: September 5, 2022
Source: United States (US)
Launch site: AIR FORCE EASTERN TEST RANGE (AFETR)
Your satellite tracking list
Your tracking list is empty




NASA's NSSDC Master Catalog

Two Line Element Set (TLE):
1 53716U 22107S   25186.58444783 -.00000403  00000-0 -72344-5 0  9993
2 53716  53.2177 283.0984 0001111  85.9887 274.1232 15.08835075157109
Source of the keplerian elements: AFSPC